Regional Weather Roundup
Issued by NWS

Home | Current Version | Previous Version | Graphics & Text | Print | Product List | Glossary Off
Versions: 1 2 3 4 5 6 7 8 9 10 11 12 13 14 15 16 17 18 19 20 21 22 23 24 25 26 27 28 29 30 31 32 33 34 35 36 37 38 39 40 41 42 43 44 45 46 47 48 49 50

267
ASUS43 KFSD 221102
RWRSD

WEATHER ROUNDUP FOR SOUTH DAKOTA
NATIONAL WEATHER SERVICE SIOUX FALLS SD
600 AM CDT TUE MAY 22 2018

NOTE: "FAIR" INDICATES FEW OR NO CLOUDS BELOW 12,000 FEET WITH NO
SIGNIFICANT WEATHER AND/OR OBSTRUCTIONS TO VISIBILITY.


SDZ001>005-009-010-012>017-221200-
NORTHWEST AND NORTH CENTRAL SOUTH DAKOTA

CITY           SKY/WX    TMP DP  RH WIND       PRES   REMARKS
BUFFALO          N/A     53  46  77 NE6       29.86R
FAITH            N/A     53  51  93 SE10      29.89S
MOBRIDGE       MOCLDY    55  51  86 E8        29.90S
$$

SDZ012>016-024>037-041>051-057-063-072>074-221200-
SOUTHWEST AND SOUTH CENTRAL SOUTH DAKOTA

CITY           SKY/WX    TMP DP  RH WIND       PRES   REMARKS
RAPID CTY ARPT PTCLDY    50  48  93 NW7       29.92R
PIERRE         MOCLDY    55  54  96 E8        29.90F
CUSTER         MOCLDY    49  43  80 N5        30.03R
ELLSWORTH AFB  CLEAR     53  53 100 CALM      29.92R
PHILIP         CLEAR     56  55  97 CALM      29.90R
PINE RIDGE     CLEAR     50  49  96 NE3       29.94R
SPEARFISH      FAIR      54  41  62 S6        29.95S
WINNER         PTSUNNY   63  56  78 SE9       29.92R
$$

SDZ004>011-016>023-039-040-221200-
NORTHEAST SOUTH DAKOTA

CITY           SKY/WX    TMP DP  RH WIND       PRES   REMARKS
ABERDEEN       FOG       49  48  97 CALM      29.97S VSB 1/4
WATERTOWN      FOG       52  52 100 SE6       29.99R VSB 1/4
BROOKINGS      FOG       51  51 100 SE5       30.00S VSB<1/4
SISSETON         N/A     57  57 100 SE7       29.98S
$$

SDZ017-020-022-023-036>040-048>070-221200-
SOUTHEAST SOUTH DAKOTA

CITY           SKY/WX    TMP DP  RH WIND       PRES   REMARKS
SIOUX FALLS    FOG       49  49 100 NE5       30.00S VSB 1/8
HURON          PTCLDY    52  51  97 MISG      29.96S FOG
CHAMBERLAIN    MOCLDY    56  56 100 E7        29.93S FOG
MITCHELL       MOCLDY    54  52  93 SE6       29.96S FOG
YANKTON        CLOUDY    57  56  96 E6        29.97S FOG
$$

ABBREVIATIONS USED IN REMARKS
   TC - TEMPERATURE IN CELSIUS
  WCI - WIND CHILL INDEX
   HX - HEAT INDEX
  VSB - VISIBILITY





USA.gov is the U.S. government's official web portal to all federal, state and local government web resources and services.